sat.trackr.live / text

‹ back to catalog

STARLINK-30905

NORAD 58356 · 2023-177F

PAYLOAD ACTIVE UNKNOWN

§ Identity

Operator
Country
US
Launch date
2023-11-18
Launch site
AFETR
Launch vehicle
Mass (kg)
RCS (m²)

Purposes: comms

External: N2YO · Heavens-Above · Gunter

§ Orbital elements

Epoch: 2026-09-20T15:14:56.464800Z

Period
94.27 min
Inclination
43.0059°
Eccentricity
0.0001956
Mean motion
15.27580139 rev/d
Perigee alt
481.7 km
Apogee alt
484.4 km
Semi-major
6,861.2 km
B*
6.1516e-5
RAAN
329.4705°
Arg perigee
264.4145°
Mean anomaly
95.6483°
Rev number
15,798

§ Raw data

STARLINK-309051 58356U 23177F   26263.63537575  .00001431  00000+0  61516-4 0  99982 58356  43.0059 329.4705 0001956 264.4145  95.6483 15.27580139157983

JSON: /api/v1/satellites/58356 · /tle

For live sub-satellite position, see the globe view (requires WebGL).

§ Visibility from observer

Set your observer location to see the next 7 days of passes ≥ 10°. The values pass through the URL so the page stays shareable.

No JS? Fill the form by hand. The geolocation button needs JavaScript.